Tracking 22287 objects as of 27-Jan-2021
HD Live streaming from Space Station
objects crossing your sky now

AISTECHSAT-3

Track AISTECHSAT-3 now!
10-day predictions
AISTECHSAT-3 is classified as:


NORAD ID: 44103
Int'l Code: 2019-018AB
Perigee: 491.7 km
Apogee: 512.1 km
Inclination: 97.4 °
Period: 94.5 minutes
Semi major axis: 6872 km
RCS: Unknown
Launch date: April 1, 2019
Source: Spain (SPN)
Launch site: SRIHARIKOTA (SRI)

Uplink (MHz):
Downlink (MHz): 436.730
Beacon (MHz):
Mode: 4k8/9k6 GFSK
Call sign:
Status: Active

aabbcc
Your satellite tracking list
Your tracking list is empty




NASA's NSSDC Master Catalog

Two Line Element Set (TLE):
1 44103U 19018AB  21027.44199074  .00001410  00000-0  61571-4 0  9991
2 44103  97.3811  91.3772 0014833 117.5638  70.5479 15.23666605101534
Source of the keplerian elements: AFSPC